N3HBJ Weather Reports


Display with metric or nautical units.
time (UTC)temp
F
wind
direction
speed
MPH
gust
MPH
rain 1hr
in
rain 24hr
in
rain mn
in
humidity
%
barometer
mb
20260510103315 49 48 0.0 0.0 0.00 0.23 0.09 92 1011.5
20260510102812 49 48 0.0 0.0 0.00 0.24 0.09 92 1011.5
20260510102312 49 48 0.0 0.0 0.00 0.24 0.09 92 1011.3
20260510101811 49 48 0.0 0.0 0.00 0.24 0.09 92 1011.2
20260510101311 49 48 0.0 0.0 0.00 0.24 0.09 92 1011.2
20260510100810 50 48 0.0 0.0 0.01 0.24 0.09 92 1011.2
20260510100310 50 48 0.0 0.0 0.01 0.24 0.09 92 1011.2
20260510095812 50 48 0.0 0.0 0.01 0.24 0.09 92 1011.2
20260510095306 50 48 0.0 0.0 0.01 0.24 0.09 92 1011.2
20260510095031 49 48 0.0 0.0 0.01 0.24 0.09 92 1011.1
20260510094518 49 48 0.0 0.0 0.01 0.24 0.09 92 1011.1
20260510093754 49 48 0.0 0.0 0.01 0.24 0.09 92 1011.1
20260510093253 49 48 0.0 0.0 0.01 0.24 0.09 91 1011.0
20260510092750 49 48 0.0 0.0 0.01 0.24 0.09 91 1010.8
20260510092250 49 48 0.0 0.0 0.01 0.24 0.09 91 1010.7
20260510092012 49 48 0.0 0.0 0.01 0.24 0.09 91 1010.7
20260510091248 50 48 0.0 0.0 0.01 0.24 0.09 91 1010.6
20260510091008 50 48 0.0 0.0 0.00 0.23 0.08 91 1010.5
20260510090508 50 48 0.0 0.0 0.00 0.23 0.08 91 1010.4
20260510085744 50 48 0.0 0.0 0.00 0.23 0.08 91 1010.4
20260510085243 50 48 0.0 0.0 0.00 0.23 0.08 91 1010.2
20260510084744 50 48 0.0 0.0 0.00 0.23 0.08 91 1010.2
20260510084244 50 48 0.0 0.0 0.00 0.23 0.08 91 1010.1
20260510083742 50 48 0.0 0.0 0.00 0.23 0.08 91 1010.1
20260510083502 50 48 0.0 0.0 0.00 0.23 0.08 91 1010.1
20260510082742 50 48 0.0 0.0 0.00 0.23 0.08 90 1010.0
20260510082504 50 48 0.0 0.0 0.00 0.23 0.08 90 1010.1
20260510081736 50 48 0.0 0.0 0.00 0.23 0.08 90 1010.1
20260510081233 51 48 0.0 0.0 0.00 0.23 0.08 89 1010.1
20260510080731 51 48 0.0 0.0 0.00 0.23 0.08 89 1010.1
20260510080232 51 48 0.0 0.0 0.00 0.23 0.08 89 1010.0
20260510075732 51 48 0.0 3.0 0.00 0.23 0.08 89 1009.9
20260510075455 51 48 0.0 3.0 0.01 0.24 0.08 89 1009.8
20260510074730 51 48 0.0 4.0 0.01 0.24 0.08 89 1009.8
20260510074230 52 51 0.0 4.0 0.01 0.24 0.08 89 1009.9
20260510073732 51 74 0.0 5.0 0.02 0.24 0.08 89 1010.0
20260510073230 51 83 0.0 5.0 0.02 0.24 0.08 89 1010.0
20260510072730 51 73 0.0 3.0 0.02 0.24 0.08 89 1010.1
20260510072226 51 84 0.0 4.0 0.03 0.24 0.08 90 1010.2
20260510071725 51 84 0.0 4.0 0.03 0.24 0.08 89 1010.1
20260510071226 51 87 0.0 3.0 0.04 0.24 0.08 89 1010.2
20260510070726 51 87 1.0 3.0 0.05 0.24 0.08 89 1010.3
20260510070228 51 75 0.0 3.0 0.05 0.24 0.08 89 1010.3
20260510065726 51 76 0.0 7.0 0.06 0.24 0.08 89 1010.5
20260510065224 51 81 0.0 7.0 0.05 0.23 0.07 89 1010.6
20260510064723 51 81 0.0 5.0 0.05 0.23 0.07 89 1010.6
20260510064223 51 74 1.0 5.0 0.05 0.23 0.07 89 1010.6
20260510063720 51 72 1.0 4.0 0.04 0.22 0.06 89 1010.7
20260510063219 51 64 1.0 5.0 0.04 0.22 0.06 89 1011.0
20260510062718 51 69 0.0 5.0 0.04 0.22 0.06 89 1011.0
20260510062217 51 85 0.0 3.0 0.03 0.21 0.05 89 1011.0
20260510061717 51 85 0.0 4.0 0.02 0.20 0.05 89 1011.0
20260510061216 51 85 0.0 4.0 0.02 0.20 0.04 89 1011.1
20260510060716 51 53 0.0 0.0 0.01 0.19 0.03 89 1011.1
20260510060214 51 53 0.0 0.0 0.01 0.19 0.03 88 1011.0
20260510055713 51 53 0.0 0.0 0.00 0.18 0.02 88 1011.0
20260510055213 51 53 0.0 0.0 0.00 0.18 0.02 87 1010.5
20260510054935 52 53 0.0 0.0 0.00 0.18 0.02 87 1010.4
20260510054653 52 53 0.0 0.0 0.00 0.18 0.02 86 1010.2
20260510053712 52 53 0.0 4.0 0.00 0.18 0.02 86 1010.2
20260510053213 51 53 0.0 4.0 0.00 0.18 0.02 86 1010.2
20260510052939 51 69 0.0 3.0 0.01 0.18 0.02 87 1010.3
20260510052213 51 69 0.0 3.0 0.01 0.18 0.02 87 1010.5
20260510051927 51 69 0.0 3.0 0.02 0.18 0.02 87 1010.6
20260510051204 51 70 0.0 3.0 0.02 0.18 0.02 87 1010.6
20260510050922 51 70 1.0 6.0 0.02 0.18 0.02 87 1010.4
20260510050159 51 71 2.0 8.0 0.02 0.18 0.02 87 1010.4
20260510045656 51 76 3.0 8.0 0.03 0.18 0.02 87 1010.4
20260510045157 51 44 3.0 9.0 0.03 0.19 0.02 87 1010.2
20260510044917 51 60 2.0 9.0 0.03 0.19 0.02 87 1010.3
20260510044156 51 9 2.0 8.0 0.03 0.19 0.02 87 1010.5
20260510043657 52 62 0.0 4.0 0.03 0.19 0.02 87 1010.7
20260510043157 52 51 0.0 3.0 0.03 0.19 0.02 86 1011.0
20260510042657 52 52 0.0 2.0 0.02 0.18 0.01 85 1011.2
20260510042157 52 52 0.0 0.0 0.02 0.18 0.01 85 1011.4
20260510041657 53 52 0.0 2.0 0.01 0.17 0.00 84 1011.6
20260510041156 53 52 0.0 2.0 0.01 0.17 0.00 83 1011.7
20260510040652 53 55 0.0 0.0 0.01 0.18 0.00 82 1011.8
20260510040153 53 55 0.0 4.0 0.01 0.18 0.00 81 1011.8
20260510035651 54 55 0.0 4.0 0.00 0.17 0.17 79 1011.8
20260510035151 54 169 0.0 4.0 0.00 0.17 0.17 79 1011.8
20260510034651 54 169 0.0 4.0 0.00 0.17 0.17 78 1011.8
20260510034148 54 308 0.0 3.0 0.00 0.17 0.17 78 1011.5
20260510033646 54 186 0.0 5.0 0.00 0.18 0.17 78 1011.5
20260510033145 54 185 0.0 5.0 0.00 0.18 0.17 78 1011.5
20260510032911 54 240 0.0 9.0 0.00 0.18 0.17 78 1011.5
20260510032140 54 281 1.0 9.0 0.00 0.18 0.17 78 1011.4
20260510031640 54 327 2.0 12.0 0.00 0.18 0.17 79 1011.5
20260510031140 53 301 3.0 12.0 0.00 0.18 0.17 81 1011.3
20260510030640 51 276 1.0 8.0 0.00 0.18 0.17 85 1011.3
20260510030141 51 70 0.0 0.0 0.00 0.18 0.17 85 1010.3
20260510030127 51 70 0.0 0.0 0.00 0.18 0.17 85 1010.3
20260510025138 50 69 0.0 0.0 0.00 0.18 0.17 85 1010.2
20260510024636 50 69 0.0 0.0 0.00 0.18 0.17 84 1010.1
20260510024136 51 70 0.0 0.0 0.00 0.18 0.17 83 1009.9
20260510023636 51 70 0.0 0.0 0.00 0.18 0.17 83 1009.7
20260510023136 51 69 0.0 0.0 0.00 0.18 0.17 82 1009.6
20260510022901 52 69 0.0 0.0 0.00 0.18 0.17 80 1009.4
20260510022136 52 69 0.0 0.0 0.00 0.18 0.17 80 1009.2
20260510021636 53 70 0.0 0.0 0.00 0.18 0.17 78 1009.1
20260510021136 54 70 0.0 0.0 0.00 0.18 0.17 77 1008.9
20260510020855 55 70 0.0 4.0 0.00 0.18 0.17 76 1008.8
20260510020405 55 70 1.0 5.0 0.00 0.18 0.17 74 1008.6
20260510015636 54 65 1.0 5.0 0.00 0.18 0.17 76 1008.4
20260510015136 51 38 0.0 2.0 0.00 0.18 0.17 81 1008.4
20260510014636 51 80 0.0 0.0 0.00 0.18 0.17 82 1008.4
20260510014136 51 87 0.0 0.0 0.00 0.18 0.17 82 1008.6
20260510013636 51 87 0.0 0.0 0.00 0.18 0.17 82 1008.6
20260510013136 52 87 0.0 0.0 0.00 0.18 0.17 80 1008.7
20260510012636 52 87 0.0 0.0 0.00 0.18 0.17 79 1008.8
20260510012137 53 87 0.0 0.0 0.00 0.18 0.17 78 1008.9
20260510012128 53 87 0.0 0.0 0.00 0.18 0.17 78 1008.8
20260510011136 54 87 0.0 0.0 0.00 0.18 0.17 78 1008.9
20260510010635 54 87 0.0 0.0 0.00 0.19 0.17 77 1008.8
20260510010135 55 87 0.0 0.0 0.00 0.19 0.17 76 1008.7
20260510005856 56 87 0.0 0.0 0.00 0.19 0.17 75 1008.6
20260510005135 56 87 0.0 4.0 0.00 0.19 0.17 72 1008.3
20260510004858 57 87 0.0 4.0 0.00 0.19 0.17 69 1008.2
20260510004135 57 76 0.0 1.0 0.00 0.19 0.17 68 1008.0
20260510003635 58 76 0.0 3.0 0.00 0.19 0.17 68 1008.0
20260510003135 58 76 0.0 4.0 0.00 0.19 0.17 67 1008.0
20260510002636 59 88 0.0 4.0 0.00 0.19 0.17 66 1008.1
20260510002135 59 92 0.0 3.0 0.00 0.19 0.17 66 1008.0
20260510001635 59 93 0.0 3.0 0.00 0.19 0.17 66 1008.0
20260510001136 60 94 0.0 3.0 0.00 0.19 0.17 65 1007.9
20260510000639 60 94 1.0 5.0 0.00 0.19 0.17 64 1008.0
20260510000135 60 96 0.0 5.0 0.00 0.19 0.17 63 1008.0
20260510000118 60 119 0.0 4.0 0.00 0.19 0.17 62 1008.0
20260509235355 61 119 1.0 7.0 0.00 0.19 0.17 62 1008.0
20260509234635 61 136 1.0 8.0 0.00 0.19 0.17 62 1007.9
20260509234357 61 119 2.0 8.0 0.00 0.19 0.17 61 1007.8
20260509233636 61 115 2.0 10.0 0.00 0.19 0.17 61 1007.8
20260509233136 62 111 4.0 16.0 0.00 0.19 0.17 60 1007.8
20260509232635 62 103 5.0 16.0 0.00 0.19 0.17 60 1007.8
20260509232135 62 24 3.0 13.0 0.00 0.19 0.17 60 1007.8
20260509231902 62 121 2.0 8.0 0.00 0.19 0.17 60 1007.6
20260509231134 62 87 2.0 10.0 0.00 0.19 0.17 60 1007.4
20260509230632 62 92 3.0 12.0 0.00 0.19 0.17 59 1007.3
20260509230130 63 203 3.0 12.0 0.00 0.19 0.17 58 1007.4
20260509225629 63 81 3.0 14.0 0.00 0.19 0.17 58 1007.5
20260509225130 63 163 4.0 14.0 0.00 0.19 0.17 58 1007.5
20260509224631 63 73 4.0 10.0 0.00 0.19 0.17 58 1007.5
20260509224129 63 131 4.0 10.0 0.00 0.19 0.17 60 1007.5
20260509223627 63 79 3.0 10.0 0.00 0.19 0.17 60 1007.5
20260509223128 63 223 3.0 12.0 0.00 0.19 0.17 60 1007.6
20260509222641 62 251 4.0 12.0 0.00 0.19 0.17 60 1007.6
20260509222343 62 74 4.0 12.0 0.00 0.19 0.17 61 1007.7
20260509221626 62 175 4.0 11.0 0.00 0.19 0.17 61 1007.8
20260509221342 63 73 3.0 11.0 0.00 0.19 0.17 60 1007.8
20260509220623 62 146 2.0 9.0 0.00 0.19 0.17 63 1007.8
20260509220126 62 82 3.0 9.0 0.00 0.19 0.17 63 1007.9
20260509215624 62 64 3.0 10.0 0.00 0.19 0.17 63 1007.9
20260509215123 62 194 2.0 10.0 0.00 0.19 0.17 61 1007.9
20260509214623 62 67 3.0 10.0 0.00 0.19 0.17 61 1007.8
20260509214124 63 27 5.0 11.0 0.00 0.19 0.17 61 1007.6
20260509213625 63 171 4.0 11.0 0.00 0.19 0.17 62 1007.7
20260509213127 62 157 4.0 12.0 0.00 0.19 0.17 61 1007.7
20260509212848 63 103 4.0 12.0 0.00 0.19 0.17 61 1007.7
20260509212122 63 113 4.0 11.0 0.00 0.19 0.17 61 1007.7
20260509211623 62 96 3.0 11.0 0.00 0.19 0.17 63 1007.8
20260509211124 62 82 2.0 9.0 0.00 0.19 0.17 65 1007.8
20260509210624 62 95 3.0 10.0 0.00 0.19 0.17 65 1007.9
20260509210128 62 85 5.0 12.0 0.00 0.19 0.17 64 1007.9
20260509205623 62 94 5.0 12.0 0.00 0.19 0.17 64 1007.9
20260509205124 61 87 4.0 11.0 0.00 0.19 0.17 66 1007.9
20260509204624 61 171 3.0 9.0 0.00 0.19 0.17 65 1008.0
20260509204123 61 163 3.0 9.0 0.00 0.19 0.17 66 1008.0
20260509203844 61 144 4.0 10.0 0.00 0.19 0.17 68 1008.0
20260509203123 61 153 3.0 10.0 0.00 0.20 0.17 66 1007.9
20260509202623 61 65 3.0 10.0 0.00 0.20 0.17 68 1007.9
20260509202348 62 128 4.0 12.0 0.00 0.20 0.17 65 1008.0
20260509201623 61 71 5.0 14.0 0.00 0.21 0.17 68 1008.2
20260509201123 61 142 4.0 14.0 0.00 0.21 0.17 71 1008.2
20260509200843 60 85 4.0 12.0 0.00 0.21 0.17 71 1008.3
20260509200123 60 96 4.0 13.0 0.00 0.21 0.17 71 1008.4
20260509195623 60 234 5.0 14.0 0.00 0.21 0.17 72 1008.6
20260509195124 60 63 5.0 14.0 0.00 0.21 0.17 72 1008.7
20260509194846 59 98 2.0 11.0 0.00 0.21 0.17 75 1008.7
20260509194123 59 80 1.0 7.0 0.00 0.21 0.17 78 1008.8
20260509193849 58 78 1.0 7.0 0.00 0.21 0.17 77 1008.8
20260509193124 58 100 3.0 8.0 0.00 0.21 0.17 75 1008.9
20260509192624 58 115 3.0 9.0 0.00 0.21 0.17 75 1009.0
20260509192124 59 109 3.0 10.0 0.00 0.21 0.17 75 1009.1
20260509191624 59 50 4.0 14.0 0.00 0.21 0.17 78 1009.1
20260509191342 58 73 5.0 14.0 0.00 0.21 0.17 78 1009.1
20260509190623 57 61 5.0 14.0 0.00 0.21 0.17 80 1009.2
20260509190347 56 56 4.0 10.0 0.00 0.21 0.17 81 1009.1
20260509185623 55 126 4.0 10.0 0.00 0.21 0.17 82 1009.1
20260509185124 55 61 3.0 9.0 0.00 0.21 0.17 82 1009.2
20260509184624 54 144 2.0 7.0 0.00 0.21 0.17 84 1009.3
20260509184123 54 96 1.0 7.0 0.01 0.21 0.17 84 1009.3
20260509183623 54 102 1.0 5.0 0.01 0.21 0.17 86 1009.4
20260509183123 54 103 1.0 7.0 0.01 0.21 0.17 85 1009.4
20260509182623 54 119 2.0 9.0 0.01 0.21 0.17 84 1009.4
20260509182126 54 129 3.0 12.0 0.01 0.21 0.17 84 1009.5
20260509181623 54 79 4.0 12.0 0.01 0.21 0.17 84 1009.4
20260509181127 54 78 3.0 9.0 0.01 0.21 0.17 84 1009.4
20260509180623 55 91 2.0 9.0 0.01 0.23 0.17 84 1009.5
20260509180124 55 167 2.0 9.0 0.01 0.24 0.17 86 1009.4
20260509175623 55 96 3.0 11.0 0.01 0.24 0.17 85 1009.3
20260509175124 54 91 3.0 11.0 0.01 0.24 0.17 85 1009.2
20260509174623 54 148 4.0 9.0 0.01 0.24 0.17 85 1009.2
20260509174347 54 103 4.0 11.0 0.00 0.23 0.16 85 1009.3
20260509173846 54 79 4.0 12.0 0.00 0.23 0.16 85 1009.2
20260509173125 54 85 3.0 12.0 0.00 0.23 0.16 86 1009.2
20260509172840 54 106 3.0 10.0 0.00 0.23 0.16 85 1009.2
20260509172343 54 116 3.0 10.0 0.00 0.23 0.16 85 1009.2
20260509171621 53 100 3.0 10.0 0.00 0.23 0.16 86 1009.2
20260509171121 53 73 3.0 10.0 0.00 0.23 0.16 85 1009.2
20260509170838 53 108 2.0 9.0 0.01 0.23 0.16 86 1009.2
20260509170119 53 134 3.0 10.0 0.02 0.23 0.16 86 1009.2
20260509165617 53 42 3.0 10.0 0.02 0.23 0.16 86 1009.1
20260509165342 53 86 3.0 9.0 0.02 0.23 0.16 86 1009.1
20260509164614 53 65 2.0 9.0 0.03 0.23 0.16 86 1009.1
20260509164114 53 92 1.0 9.0 0.03 0.24 0.16 88 1009.0
20260509163613 53 171 3.0 12.0 0.03 0.24 0.16 88 1009.0
20260509163114 53 134 3.0 12.0 0.03 0.24 0.16 87 1009.0
20260509163054 53 60 2.0 9.0 0.04 0.24 0.16 88 1008.9
20260509162340 53 80 2.0 11.0 0.04 0.24 0.16 87 1009.0
20260509161612 53 111 3.0 11.0 0.04 0.24 0.16 87 1009.0
20260509161113 53 78 3.0 10.0 0.04 0.24 0.16 87 1008.9
20260509160613 53 96 3.0 10.0 0.03 0.23 0.15 87 1008.9
20260509160118 53 103 2.0 7.0 0.02 0.22 0.14 88 1008.9
20260509155613 53 69 3.0 13.0 0.02 0.22 0.14 87 1008.9
20260509155113 53 37 3.0 13.0 0.02 0.22 0.14 87 1009.0
20260509154830 53 140 3.0 12.0 0.01 0.21 0.13 87 1008.9
20260509154113 53 77 3.0 12.0 0.01 0.21 0.13 87 1009.0
20260509153613 53 60 2.0 8.0 0.01 0.21 0.13 87 1009.1
20260509153112 53 104 2.0 10.0 0.01 0.21 0.13 87 1009.1
20260509152611 53 82 2.0 10.0 0.00 0.20 0.12 86 1009.1
20260509152110 53 119 2.0 10.0 0.00 0.20 0.12 87 1009.2
20260509151604 53 147 2.0 9.0 0.01 0.20 0.12 86 1009.1
20260509151118 53 79 1.0 7.0 0.01 0.20 0.12 87 1009.1
20260509150605 53 84 2.0 9.0 0.02 0.20 0.12 87 1009.1
20260509150105 53 175 3.0 11.0 0.02 0.20 0.12 87 1009.2
20260509145605 53 159 3.0 11.0 0.03 0.20 0.12 87 1009.2
20260509145104 53 130 2.0 11.0 0.03 0.20 0.12 88 1009.2
20260509144605 53 126 1.0 7.0 0.03 0.20 0.12 88 1009.2
20260509144106 53 58 1.0 6.0 0.04 0.20 0.12 89 1009.2
20260509143605 52 115 1.0 6.0 0.04 0.20 0.12 88 1009.2
20260509143104 52 106 2.0 7.0 0.04 0.20 0.12 89 1009.3
20260509142604 52 42 2.0 7.0 0.04 0.20 0.12 89 1009.3
20260509142103 52 121 2.0 8.0 0.05 0.20 0.12 89 1009.3
20260509141832 52 133 2.0 10.0 0.04 0.19 0.11 88 1009.3
20260509141103 52 69 2.0 10.0 0.05 0.19 0.11 88 1009.4
20260509140604 52 89 1.0 8.0 0.04 0.18 0.10 88 1009.4
20260509140104 52 78 2.0 10.0 0.05 0.18 0.10 88 1009.4
20260509135601 52 113 2.0 10.0 0.04 0.17 0.09 88 1009.4
20260509135321 51 87 3.0 10.0 0.05 0.17 0.09 88 1009.4
20260509134557 51 74 3.0 10.0 0.05 0.17 0.09 88 1009.5
20260509134533 51 98 1.0 9.0 0.04 0.16 0.08 88 1009.5
20260509133553 51 98 1.0 6.0 0.04 0.16 0.08 88 1009.5
20260509133052 51 86 2.0 8.0 0.04 0.16 0.08 88 1009.5
20260509132552 51 65 2.0 8.0 0.04 0.16 0.08 88 1009.5
20260509132105 51 69 2.0 8.0 0.03 0.15 0.07 87 1009.6
20260509131553 51 95 2.0 8.0 0.03 0.15 0.07 86 1009.6
20260509131052 51 60 1.0 5.0 0.02 0.14 0.06 86 1009.6
20260509130605 51 70 1.0 5.0 0.01 0.13 0.06 86 1009.6
20260509130106 51 68 0.0 5.0 0.01 0.13 0.05 86 1009.6
20260509125551 51 111 1.0 7.0 0.00 0.12 0.04 85 1009.6
20260509125050 51 134 1.0 7.0 0.00 0.12 0.04 84 1009.6
20260509124811 51 80 1.0 7.0 0.00 0.12 0.04 84 1009.6
20260509124049 51 76 2.0 6.0 0.00 0.12 0.04 84 1009.5
20260509123812 51 75 2.0 5.0 0.00 0.12 0.04 83 1009.6
20260509123046 51 81 1.0 5.0 0.00 0.12 0.04 84 1009.6
20260509122545 51 49 1.0 4.0 0.00 0.12 0.04 83 1009.6
20260509122045 51 94 1.0 4.0 0.00 0.12 0.04 83 1009.7
20260509121543 51 85 0.0 4.0 0.00 0.12 0.04 84 1009.7
20260509121042 51 80 1.0 8.0 0.00 0.12 0.04 84 1009.7
20260509121024 51 75 2.0 8.0 0.00 0.12 0.04 83 1009.8
20260509120252 51 92 1.0 6.0 0.00 0.12 0.04 84 1009.8
20260509115535 51 54 1.0 5.0 0.00 0.12 0.04 84 1009.8
20260509115034 51 49 0.0 2.0 0.00 0.12 0.04 84 1009.8
20260509114535 51 48 1.0 5.0 0.00 0.12 0.04 84 1009.8
20260509114035 51 47 1.0 5.0 0.00 0.12 0.04 84 1009.8
20260509113532 51 126 1.0 6.0 0.00 0.12 0.04 84 1009.8
20260509113259 50 80 1.0 6.0 0.00 0.12 0.04 84 1009.8
20260509112754 50 82 1.0 4.0 0.01 0.12 0.04 85 1009.9
20260509112258 50 66 1.0 9.0 0.01 0.12 0.04 85 1009.9
20260509111533 50 80 2.0 9.0 0.01 0.12 0.04 85 1009.8
20260509111034 50 59 2.0 11.0 0.01 0.12 0.04 85 1009.8
20260509110546 49 62 2.0 11.0 0.01 0.12 0.04 86 1009.8
20260509110032 49 57 1.0 8.0 0.01 0.12 0.04 87 1009.8
20260509105533 48 113 0.0 5.0 0.01 0.12 0.04 89 1009.9
20260509105030 48 104 1.0 4.0 0.01 0.12 0.04 90 1009.9
20260509105010 48 90 1.0 4.0 0.01 0.12 0.04 90 1009.9
20260509104030 47 77 2.0 4.0 0.01 0.12 0.04 92 1009.9